TimeEDT,TemperatureF,Dew PointF,Humidity,Sea Level PressureIn,VisibilityMPH,Wind Direction,Wind SpeedMPH,Gust SpeedMPH,PrecipitationIn,Events,Conditions,WindDirDegrees,DateUTC
12:53 AM,73.9,69.1,85,29.83,10.0,ESE,15.0,-,0.00,,Mostly Cloudy,120,2011-10-18 04:53:00
1:53 AM,73.9,70.0,87,29.81,10.0,East,13.8,-,N/A,,Mostly Cloudy,100,2011-10-18 05:53:00
2:53 AM,75.0,69.1,82,29.80,10.0,SE,13.8,-,N/A,,Clear,140,2011-10-18 06:53:00
3:53 AM,73.9,70.0,87,29.78,10.0,SE,12.7,-,N/A,,Clear,130,2011-10-18 07:53:00
4:27 AM,73.4,69.8,88,29.77,10.0,ESE,10.4,19.6,N/A,,Partly Cloudy,120,2011-10-18 08:27:00
4:53 AM,75.0,70.0,84,29.76,10.0,East,12.7,-,N/A,,Clear,100,2011-10-18 08:53:00
5:27 AM,75.2,69.8,83,29.76,10.0,ESE,12.7,-,N/A,,Mostly Cloudy,110,2011-10-18 09:27:00
5:51 AM,75.2,69.8,83,29.76,10.0,ESE,9.2,-,N/A,,Overcast,110,2011-10-18 09:51:00
5:53 AM,75.0,70.0,84,29.76,10.0,ESE,11.5,-,N/A,,Overcast,110,2011-10-18 09:53:00
6:26 AM,73.4,71.6,94,29.76,10.0,ESE,10.4,-,N/A,,Mostly Cloudy,110,2011-10-18 10:26:00
6:53 AM,73.9,70.0,87,29.76,10.0,ESE,10.4,-,N/A,,Mostly Cloudy,110,2011-10-18 10:53:00
7:28 AM,73.4,69.8,88,29.76,10.0,ESE,11.5,-,N/A,,Mostly Cloudy,120,2011-10-18 11:28:00
7:53 AM,73.4,69.8,88,29.76,10.0,SE,9.2,-,N/A,,Mostly Cloudy,130,2011-10-18 11:53:00
8:33 AM,75.2,71.6,89,29.78,10.0,ESE,8.1,-,N/A,,Overcast,120,2011-10-18 12:33:00
8:43 AM,75.2,71.6,89,29.76,10.0,ESE,12.7,23.0,N/A,,Overcast,110,2011-10-18 12:43:00
8:53 AM,75.0,71.1,87,29.75,10.0,ESE,13.8,-,N/A,,Overcast,120,2011-10-18 12:53:00
9:00 AM,75.2,71.6,89,29.76,10.0,ESE,11.5,-,N/A,,Scattered Clouds,120,2011-10-18 13:00:00
9:13 AM,75.2,71.6,89,29.77,10.0,ESE,9.2,-,N/A,,Overcast,120,2011-10-18 13:13:00
9:53 AM,75.9,72.0,87,29.77,10.0,ESE,10.4,-,0.00,,Overcast,120,2011-10-18 13:53:00
10:53 AM,77.0,72.0,84,29.78,10.0,SE,15.0,-,N/A,,Scattered Clouds,130,2011-10-18 14:53:00
11:53 AM,78.1,72.0,81,29.73,10.0,SE,20.7,32.2,N/A,,Clear,130,2011-10-18 15:53:00
12:53 PM,79.0,71.1,77,29.70,10.0,SE,20.7,28.8,N/A,,Scattered Clouds,130,2011-10-18 16:53:00
1:19 PM,78.8,71.6,78,29.70,10.0,SE,13.8,21.9,0.00,Rain,Light Rain,130,2011-10-18 17:19:00
1:53 PM,77.0,72.0,84,29.68,10.0,ESE,11.5,-,0.00,Rain,Light Rain,120,2011-10-18 17:53:00
2:31 PM,77.0,73.4,89,29.64,7.0,SE,13.8,21.9,0.02,Rain,Light Rain,130,2011-10-18 18:31:00
2:53 PM,75.9,73.0,91,29.64,10.0,SSE,18.4,25.3,0.04,Rain,Light Rain,150,2011-10-18 18:53:00
3:53 PM,77.0,73.0,88,29.61,6.0,ESE,13.8,-,0.03,Rain,Light Rain,120,2011-10-18 19:53:00
4:53 PM,77.0,72.0,84,29.59,10.0,ESE,16.1,24.2,0.02,Rain,Light Rain,120,2011-10-18 20:53:00
5:31 PM,77.0,73.4,89,29.59,10.0,SE,15.0,21.9,0.00,,Overcast,130,2011-10-18 21:31:00
5:53 PM,77.0,73.0,88,29.59,10.0,SE,18.4,24.2,0.00,,Mostly Cloudy,130,2011-10-18 21:53:00
6:10 PM,77.0,71.6,83,29.58,10.0,SE,20.7,26.5,N/A,,Mostly Cloudy,130,2011-10-18 22:10:00
6:53 PM,77.0,72.0,84,29.58,10.0,SE,16.1,-,0.00,,Overcast,140,2011-10-18 22:53:00
7:53 PM,75.9,73.0,91,29.59,10.0,SE,9.2,-,N/A,,Mostly Cloudy,130,2011-10-18 23:53:00
8:17 PM,75.2,73.4,94,29.59,5.0,East,8.1,-,0.12,Rain,Rain,80,2011-10-19 00:17:00
8:25 PM,75.2,73.4,94,29.59,10.0,ESE,8.1,-,0.13,Rain,Light Rain,120,2011-10-19 00:25:00
8:36 PM,75.2,73.4,94,29.58,8.0,SE,8.1,-,0.13,Rain,Light Rain,130,2011-10-19 00:36:00
8:50 PM,75.2,73.4,94,29.58,10.0,SE,8.1,-,0.13,,Overcast,130,2011-10-19 00:50:00
8:53 PM,75.2,73.4,94,29.58,10.0,SE,6.9,-,N/A,,Overcast,130,2011-10-19 00:53:00
9:53 PM,80.1,77.0,90,29.55,10.0,South,17.3,-,N/A,,Overcast,170,2011-10-19 01:53:00
10:18 PM,80.6,77.0,89,29.56,10.0,South,16.1,25.3,N/A,,Mostly Cloudy,180,2011-10-19 02:18:00
10:37 PM,80.6,77.0,89,29.57,10.0,South,15.0,24.2,N/A,,Mostly Cloudy,180,2011-10-19 02:37:00
10:53 PM,80.1,77.0,90,29.57,10.0,South,15.0,25.3,N/A,,Overcast,170,2011-10-19 02:53:00
11:30 PM,80.6,77.0,89,29.57,10.0,South,12.7,-,N/A,,Overcast,180,2011-10-19 03:30:00
11:45 PM,80.6,77.0,89,29.56,10.0,South,15.0,20.7,N/A,,Overcast,180,2011-10-19 03:45:00
11:53 PM,80.1,77.0,90,29.56,10.0,South,15.0,-,N/A,,Overcast,190,2011-10-19 03:53:00